Theta_e
318 316 316 316 314 316 317 317 317 316 319 317 317 320 322 323 322 318 328 330 330 331 331 331 331 330 329 328 330 329 327 323 322 319 317 317 318 319 319 318 317 315 315 314
316 317 318 316 316 317 318 317 320 318 319 319 323 323 322 325 325 324 319 330 330 332 332 332 332 331 330 331 330 330 328 326 323 321 321 321 321 320 319 318 317 315 315 313
318 320 319 320 320 319 320 320 321 321 319 319 319 319 323 324 324 328 327 327 331 332 332 332 331 331 331 332 331 330 326 324 322 322 322 322 320 319 319 318 316 315 314 312
320 321 322 320 322 320 322 321 321 320 318 319 319 318 321 322 322 325 329 331 332 332 332 331 331 331 332 332 329 326 324 323 322 322 320 319 319 318 317 316 315 314 312 311
323 323 323 321 323 322 321 320 321 321 318 318 320 320 322 322 324 327 330 332 332 333 333 331 331 331 330 328 326 325 324 323 321 319 318 318 317 316 314 314 313 312 312 310
323 323 321 322 322 321 321 321 319 317 316 321 321 322 322 324 325 330 330 331 331 333 333 332 331 329 327 325 326 325 323 322 320 319 318 318 317 315 314 313 311 311 308 308
323 323 323 323 323 320 319 317 319 323 322 324 322 325 324 323 325 328 329 330 331 331 330 327 325 325 324 323 324 324 323 320 319 318 318 318 316 313 311 310 308 307 307 307
324 324 323 322 323 322 320 318 320 327 324 322 322 326 323 324 328 329 329 329 328 326 324 322 320 319 320 321 320 318 318 316 316 316 315 313 312 311 309 307 306 307 306 305
323 324 323 323 324 321 322 320 318 319 320 320 322 325 321 319 320 322 324 323 317 318 318 318 317 317 316 315 313 311 309 308 309 310 310 310 309 309 307 306 306 306 305 305
323 323 322 326 325 324 323 320 323 319 326 327 324 327 325 319 316 314 314 313 314 315 315 314 313 311 311 310 308 307 306 306 305 305 306 307 306 305 305 306 306 306 305 306
322 322 323 322 323 325 322 323 322 320 321 324 324 323 320 317 315 311 311 312 313 312 311 311 310 310 310 309 307 306 305 305 305 304 305 305 305 305 305 305 305 305 305 306
321 320 325 325 322 321 323 324 321 323 325 321 320 321 318 313 312 312 312 312 312 312 312 313 311 309 308 307 306 306 305 304 304 305 305 305 305 306 306 306 306 306 306 306
318 317 315 315 314 320 323 322 323 319 316 319 320 320 318 315 314 312 312 311 311 311 312 310 308 308 308 306 306 305 305 304 304 305 305 305 306 307 306 305 306 306 305 306
319 317 314 316 316 321 325 324 322 321 320 322 320 322 319 315 314 314 313 312 311 311 311 310 308 307 307 306 305 305 304 304 305 306 305 305 306 306 306 306 306 306 306 305
318 321 322 322 322 324 324 323 321 322 320 322 321 322 318 315 315 314 313 312 312 311 310 310 309 308 306 306 305 304 304 305 306 305 305 306 306 306 305 306 306 306 307 306
317 322 324 324 324 324 323 321 321 320 320 316 317 317 314 315 314 314 313 312 311 311 310 309 307 305 305 305 304 305 305 305 305 305 305 305 305 305 306 306 307 306 306 307
318 318 319 320 322 321 320 321 319 317 317 316 317 315 315 315 315 314 313 312 311 310 309 306 305 305 304 304 305 305 305 305 305 305 305 305 305 306 305 306 306 306 306 306
317 316 316 318 317 318 320 320 319 318 318 317 318 317 316 315 313 313 312 311 310 309 306 306 305 304 305 305 305 306 305 305 305 305 305 304 305 304 305 305 305 306 305 306
316 316 317 319 315 320 324 321 320 320 318 317 317 316 315 313 312 311 311 310 308 306 305 305 304 304 305 305 305 305 305 305 305 305 304 304 304 305 304 304 304 304 305 305
320 319 321 321 325 325 323 320 320 320 322 316 315 315 315 312 311 308 310 308 306 305 305 304 305 305 305 304 304 304 304 304 305 305 305 304 304 304 305 304 304 303 305 305
322 323 325 323 324 324 320 320 319 319 316 316 314 313 312 311 310 309 308 306 304 305 304 304 305 303 303 304 305 304 305 305 305 305 304 305 305 305 305 304 303 302 302 303
325 324 322 321 323 322 318 318 319 314 314 313 312 311 310 309 308 307 306 305 305 304 304 304 303 303 304 305 305 305 303 303 303 303 304 304 305 305 304 303 302 301 301 301
322 319 318 315 315 315 316 316 315 314 313 311 310 309 307 306 306 305 304 305 305 304 304 304 305 305 305 305 304 302 303 303 303 303 303 304 304 305 304 303 302 301 301 301
318 316 314 313 316 314 313 313 313 312 311 309 308 306 305 305 304 305 305 304 304 304 304 305 305 305 304 304 304 303 303 303 303 303 304 304 304 304 303 302 300 300 300 301
315 313 314 314 314 313 312 312 312 311 310 308 306 305 305 305 305 303 303 303 305 306 306 305 305 305 303 302 303 302 302 303 303 303 303 302 302 301 301 300 300 300 300 299
315 312 313 313 315 313 312 311 311 310 308 307 305 304 305 305 304 302 304 306 306 306 306 305 304 303 302 302 302 302 303 303 303 303 302 302 301 301 301 300 299 299 300 299
Wind_Speed
4 4 5 10 6 2 3 1 3 5 6 3 7 9 9 15 10 5 15 19 27 28 31 37 34 29 24 20 12 2 3 6 5 5 5 4 5 10 16 22 25 23 25 29
6 3 9 4 3 2 1 2 4 6 6 7 8 9 5 15 8 9 15 22 25 28 30 32 30 27 22 17 11 4 3 2 4 5 5 6 11 17 20 26 28 26 27 29
4 5 5 4 5 6 2 5 1 2 4 3 4 6 8 6 14 24 7 16 25 29 32 32 29 25 21 12 5 4 1 6 6 5 7 12 15 19 26 28 25 24 25 28
2 6 3 4 4 3 1 2 1 1 4 2 4 3 3 8 6 16 21 18 20 22 25 28 26 24 13 3 6 8 5 8 6 9 12 16 21 25 23 22 23 23 25 30
5 5 3 5 2 0 4 4 4 2 3 3 6 4 5 6 7 8 13 20 19 19 24 20 15 8 8 3 9 10 9 8 9 11 14 18 20 21 21 21 21 24 28 31
3 2 4 1 2 3 2 3 6 4 3 3 4 3 5 3 4 2 8 19 17 20 17 13 8 2 6 9 16 11 9 9 11 12 16 19 20 20 20 21 25 27 28 30
6 4 4 7 6 5 7 7 4 5 4 5 3 3 6 4 3 9 12 19 20 18 15 10 5 2 7 9 11 12 12 11 14 17 19 19 18 18 21 24 26 24 27 29
3 6 7 8 2 3 4 5 5 4 3 5 4 3 3 1 3 16 15 13 13 13 11 13 15 15 12 9 5 4 7 9 12 13 15 17 19 22 24 25 23 22 22 21
3 4 4 1 3 2 2 2 1 5 2 2 2 1 4 6 6 14 16 16 19 21 21 21 18 12 7 2 4 8 14 18 18 18 20 22 24 26 28 25 21 18 13 18
3 2 3 6 4 4 3 3 2 3 1 3 3 2 4 4 6 8 14 21 22 23 21 17 13 9 6 10 15 17 17 16 17 18 19 20 21 20 17 15 13 12 15 16
2 3 6 4 4 4 4 4 4 4 4 4 2 5 2 6 6 10 15 18 21 19 16 13 10 10 14 18 22 24 22 20 17 16 15 16 15 13 12 12 13 14 13 15
3 4 2 5 6 5 1 3 3 4 4 0 3 4 4 8 17 22 20 20 16 12 9 6 7 15 20 24 25 25 21 16 13 12 11 11 12 13 13 12 12 13 13 14
3 3 4 9 6 5 4 5 2 3 3 4 5 3 4 14 15 17 25 20 17 8 4 5 9 16 21 23 22 18 14 11 9 8 10 11 11 14 14 13 12 12 13 11
4 3 6 5 6 3 5 7 5 4 2 3 5 6 6 7 10 14 15 13 11 6 4 8 14 20 22 20 15 12 10 8 8 10 11 12 13 14 15 13 13 13 13 12
4 2 4 6 7 5 4 6 7 1 5 3 3 5 4 6 8 8 11 8 4 3 7 14 20 23 20 13 11 8 6 8 9 11 12 13 13 15 17 14 13 13 12 12
3 1 1 4 6 5 3 9 4 5 4 6 6 6 3 8 10 7 2 2 2 5 9 16 20 17 13 9 6 8 9 9 10 11 12 14 15 16 16 13 13 13 13 11
2 4 2 4 5 6 4 6 7 7 7 2 4 2 5 3 4 5 3 3 1 7 14 18 17 13 9 7 8 11 11 10 10 9 12 15 16 16 15 13 13 14 13 11
6 5 2 3 4 1 3 6 9 11 6 5 5 3 1 3 2 4 3 4 6 11 17 17 14 6 7 8 9 9 10 10 10 9 12 14 16 18 17 15 15 15 14 11
4 5 3 3 1 1 2 4 4 3 5 8 5 3 7 9 5 4 4 4 7 13 17 13 6 8 8 9 9 9 10 10 11 11 14 14 15 17 17 16 16 14 12 12
5 5 4 3 2 4 2 3 8 7 3 6 9 7 8 11 2 3 5 5 11 15 12 4 6 7 7 8 10 11 11 12 12 14 14 12 13 15 17 16 18 16 11 11
4 3 2 3 3 4 3 2 9 2 4 6 3 2 3 2 4 3 3 8 11 12 5 4 6 7 8 11 13 14 15 17 16 16 13 10 11 13 16 16 16 14 13 13
2 2 3 1 1 4 1 3 1 4 7 5 2 2 4 3 4 5 7 8 10 6 5 5 5 6 10 13 13 12 16 15 16 14 8 7 9 12 13 14 15 14 12 10
3 5 4 5 4 1 1 3 9 6 7 2 1 3 6 5 4 5 5 7 4 5 6 7 10 11 9 11 12 12 10 15 14 13 12 10 9 11 11 14 15 14 10 12
1 3 4 3 0 6 12 12 9 5 4 3 5 7 4 3 4 4 3 4 6 7 9 10 11 13 12 12 13 11 11 14 13 13 10 9 9 11 14 14 15 15 15 15
2 3 5 2 3 9 7 7 6 5 3 5 7 6 4 4 6 7 10 10 9 10 10 10 12 12 11 12 11 16 16 15 12 11 10 9 11 13 14 13 13 13 12 16
0 5 4 5 17 6 12 11 6 1 4 6 8 4 5 5 7 10 10 9 10 11 12 12 11 9 11 9 11 17 17 13 10 9 9 11 13 10 12 12 12 10 12 13
Wind_Direction
355 44 254 253 198 166 279 253 275 279 286 53 56 37 28 22 28 63 190 179 181 179 180 182 181 171 169 173 178 195 216 195 243 244 241 248 284 308 319 323 324 329 330 336
13 277 282 219 183 126 169 79 313 297 333 94 64 22 353 48 28 32 201 192 186 178 180 184 179 174 171 178 187 239 193 270 236 236 258 286 312 312 313 319 321 324 323 334
149 269 0 76 39 113 59 121 3 239 344 43 87 7 11 348 34 38 29 197 181 180 177 177 171 172 179 186 217 222 200 242 245 266 299 308 306 308 313 310 312 315 321 325
205 298 89 65 70 118 101 221 251 72 55 266 26 267 18 329 3 32 59 111 136 151 163 167 175 183 179 234 284 215 235 249 283 310 312 322 316 309 306 303 305 311 318 320
272 302 359 67 352 110 230 43 0 13 87 52 351 76 298 351 16 19 53 108 126 148 164 170 178 197 211 318 271 279 259 287 309 318 314 307 299 294 291 295 302 308 312 319
290 348 44 3 55 31 58 47 39 48 72 34 284 110 319 325 303 63 82 112 120 138 155 147 136 221 281 265 264 245 271 273 268 282 289 284 278 278 283 291 301 311 318 324
348 352 307 32 16 356 63 49 349 356 6 230 302 57 229 258 240 159 128 117 116 116 124 130 136 216 253 228 203 215 235 261 280 286 288 278 279 287 296 308 317 317 323 322
78 325 13 341 52 266 331 144 151 238 224 261 344 166 217 105 102 136 126 126 121 122 139 135 130 129 128 133 163 231 271 294 304 294 279 285 294 298 311 319 317 317 326 336
62 285 303 265 356 70 287 348 224 116 46 69 269 228 25 95 91 105 117 118 112 122 123 122 118 105 90 82 3 340 321 310 299 294 298 298 300 308 314 319 320 322 332 345
188 321 335 311 20 350 93 150 354 6 165 261 283 240 211 175 122 94 104 110 115 116 114 109 105 92 51 357 343 335 324 314 307 306 308 313 317 320 328 333 338 341 341 346
73 90 293 3 9 293 359 9 48 118 138 184 241 263 296 181 139 112 106 120 121 111 93 57 28 14 360 353 349 346 343 340 335 330 334 334 340 354 2 356 346 341 342 345
17 128 293 257 301 311 91 51 104 115 268 225 153 269 359 108 117 123 124 130 125 116 110 97 343 351 358 355 346 341 339 339 343 349 358 18 12 1 355 348 344 337 340 341
179 25 12 347 358 360 17 359 86 110 54 209 149 235 102 111 124 143 144 148 140 138 83 34 359 351 350 348 343 342 348 0 10 34 11 2 3 360 357 353 351 351 344 344
97 119 149 196 227 211 301 324 318 163 138 236 222 162 174 133 143 147 147 151 132 115 35 350 350 351 346 338 340 348 4 34 29 15 5 6 8 10 2 353 352 350 357 355
93 165 173 244 252 257 256 304 314 293 272 185 269 118 158 155 145 141 144 138 88 5 355 350 342 336 334 339 350 14 49 24 18 12 20 18 11 5 356 355 357 359 353 350
14 229 65 286 315 317 322 344 110 18 49 51 70 63 66 102 105 99 59 40 47 349 345 337 332 330 338 355 39 21 10 7 10 17 18 13 10 3 5 10 10 4 359 355
139 137 94 273 338 339 15 1 73 72 37 85 53 1 164 119 134 119 189 238 350 347 341 336 327 331 349 34 19 8 5 0 6 26 24 13 6 1 359 356 353 358 1 2
150 124 123 224 16 48 239 54 86 84 42 78 83 47 222 169 177 185 253 307 328 330 333 329 329 8 25 23 16 16 15 20 26 21 3 1 5 1 355 356 356 353 351 356
151 130 100 115 135 172 212 6 316 23 28 353 74 124 190 208 176 252 237 285 318 331 330 335 25 24 22 12 14 14 16 18 5 352 351 356 344 349 356 358 353 341 334 339
63 53 107 94 169 251 151 287 354 152 197 167 250 233 208 196 299 273 242 306 330 329 340 17 35 20 12 12 5 357 356 348 339 343 341 335 331 347 348 344 342 337 328 329
15 4 59 111 229 285 198 263 312 107 262 189 208 346 325 260 265 324 316 323 334 344 20 46 18 19 16 356 349 351 344 330 324 321 325 320 331 343 341 339 345 345 328 319
102 189 229 94 124 297 47 324 206 183 128 143 101 16 352 340 311 314 315 334 353 41 64 35 23 11 354 352 8 359 354 3 352 349 324 324 336 336 338 350 352 348 347 352
199 191 178 158 224 42 335 187 134 157 151 152 25 348 337 317 315 317 321 336 33 65 38 22 4 356 4 346 352 344 342 348 357 1 343 334 331 331 345 352 356 358 5 12
341 131 95 80 341 113 122 120 135 116 98 74 18 3 8 12 356 5 19 75 91 55 27 16 20 3 5 1 353 358 349 347 346 358 357 1 354 352 343 352 355 5 14 14
206 96 124 72 77 123 158 156 140 110 56 18 13 8 36 56 55 71 85 83 59 31 26 9 353 346 343 349 2 358 351 351 354 1 9 11 354 347 356 356 357 2 18 22
253 164 152 217 195 166 181 172 153 68 13 9 6 42 95 76 81 96 85 54 37 27 8 5 359 3 3 5 358 3 0 360 5 0 7 356 350 2 3 10 5 34 39 41